QTR948 OTHH-WSSS

Flight info

Callsign QTR948
Flight time N/A
Altitude 35000
Route KUPRO N300 NOLSU P307 TONVO/N0496F370 P307 KUNUS/N0491F390 P307 PARAR N571 BIKEN/N0485F410 N571 GUNIP R467 VKL A464 ARAMA LELIB3B
Aircraft A359/H-SDE2E3GHIJ3J4J5LM1ORWXY/LB1D1

Departure

Time 2026-05-04 06:27
Airport Hamad International Airport (OTHH)

Arrival

Time N/A
Airport Singapore Changi Airport (WSSS)
Time Latitude Longitude Altitude Speed Heading
2026-05-04 06:09 25.26400 51.61136 28 ft 0 kts 72°
2026-05-04 06:20 25.26379 51.61046 26 ft 4 kts 107°
2026-05-04 06:20 25.26389 51.61025 27 ft 4 kts 142°
2026-05-04 06:21 25.26438 51.61000 26 ft 0 kts 158°
2026-05-04 06:25 25.25664 51.60861 28 ft 17 kts 220°
2026-05-04 06:25 25.25627 51.60750 28 ft 19 kts 251°
2026-05-04 06:26 25.25580 51.60584 28 ft 27 kts 271°
2026-05-04 06:26 25.25714 51.60464 28 ft 33 kts 339°
2026-05-04 06:26 25.26123 51.60284 31 ft 93 kts 338°
2026-05-04 06:26 25.26895 51.59945 27 ft 144 kts 339°
2026-05-04 06:27 25.31194 51.58047 1766 ft 181 kts 337°
2026-05-04 06:28 25.32430 51.57496 1948 ft 203 kts 337°
2026-05-04 06:28 25.33816 51.56875 2144 ft 226 kts 337°
2026-05-04 06:28 25.35355 51.56240 2460 ft 243 kts 343°
2026-05-04 06:28 25.37049 51.56029 3088 ft 249 kts
2026-05-04 06:29 25.38714 51.56587 3740 ft 258 kts 27°
2026-05-04 06:29 25.39980 51.58040 4315 ft 273 kts 59°
2026-05-04 06:29 25.40388 51.60114 4939 ft 284 kts 87°
2026-05-04 06:29 25.40132 51.62297 5555 ft 289 kts 100°
2026-05-04 06:30 25.39570 51.64414 6177 ft 292 kts 105°
2026-05-04 06:30 25.38866 51.66558 6751 ft 295 kts 107°
2026-05-04 06:30 25.38158 51.68669 7277 ft 298 kts 107°
2026-05-04 06:30 25.37461 51.70834 7862 ft 300 kts 106°
2026-05-04 06:31 25.36795 51.73031 8443 ft 303 kts 105°
2026-05-04 06:31 25.36158 51.75258 9046 ft 305 kts 105°
2026-05-04 06:31 25.35540 51.77522 9650 ft 308 kts 104°
2026-05-04 06:31 25.34929 51.79814 10203 ft 313 kts 104°
2026-05-04 06:32 25.34303 51.82181 10472 ft 329 kts 104°
2026-05-04 06:33 25.29090 52.01535 12406 ft 404 kts 105°
2026-05-04 06:34 25.28278 52.04525 12882 ft 406 kts 106°
2026-05-04 06:34 25.27461 52.07531 13347 ft 409 kts 106°